ATLAS 5 CENTAUR DEB, 46464

Orbit data source: Space-Track

ATLAS 5 CENTAUR DEB, 46464 is space debris in HEO originally from a launch on Wed, 17 Sep 2014 UTC launched from the Air Force Eastern Test Range (AFETR). Debris objects in space refer to the collection of defunct objects orbiting the Earth. Examples of debris include non-operational satellites, rocket bodies, and fragments generated from explosions, collisions, or faulty payload assembly.

Loading next visibility...
Identifier
46464, 2014-055CL
Orbit
HEO
Country
Flag of USUS
Related business
Flag of USUnited Launch Alliance/Lockheed Martin (US)
Manufacturer
Unknown
Mission
Spacecraft
Bus & Motor
Unknown
Mass
Unknown
Launch date (UTC)
2014-09-17 (11 years ago)
Launch vehicle
Unknown
Launch site
Air Force Eastern Test Range (AFETR)
Object type
Payload
Rocket body
Debris
Shape & HBR
Unknown
Radar Cross Section
RCS unknown

Expand to show TLE details & history
Last TLE update: 7 months ago

TLE from 7 months ago
0 ATLAS 5 CENTAUR DEB
1 46464U 14055CL  25041.96627491 -.00000013  00000-0  00000-0 0  9990
2 46464  19.4517 200.4013 4923739  66.5983 336.9170  1.82544132 34867
Epoch: 2025-02-10T23:11Z
TLE epoch observation values (Epoch: 2025-02-10T23:11:26.152Z)
Latitude
0.00001°
Longitude
71.15069°
Altitude
11,568.107 km
Speed
5.507 km/s
True Right ascension
13h 21m 09s
True Declination
0° 00' 00"
Sunlit
Object was in daylight at epoch
Visualization orbit readout
Latitude
Unknown
Longitude
Unknown
Altitude
Unknown
Speed
Unknown
Apparent Right ascension
Unknown
Apparent Declination
Unknown
Sunlit
N/A
Visualization observer readout
Local Sidereal Time
00:47:46
Azimuth
Unknown
Elevation
Unknown
Doppler factor
Unknown
Orbital elements
Apogee altitude
35,830.183 km
Perigee altitude
7,978.885 km
Semi-major axis
28,282.671 km
Eccentricity
0.49237
Inclination
19.4517°
RAAN
200.4013°
Arg. of periapsis
66.5983°
True anomaly
293.38288°
Mean anomaly
336.917°
Eccentric anomaly
318.0634°
Mean motion
0.45631 °/min
Orbital period
788.93 mins
BSTAR
0
Loading maneuver chart data...
Computing Atmospheric mass density...

Documentation

Showing up to 5 results
|